Location: Bad Rothenbrunn
(47.2167°N, 11.2167°E)
Time: 17:08:58
(UTC+00:00)

Cosmos 1943 Rocket - Pass Details

Date: 03 March 2021
Orbit: 811 x 844 km, 71.0° (Epoch: 22 April)

Event Time Altitude Azimuth Distance (km) Brightness Sun altitude
Rises 20:43:42 0° 336° (NNW) 3,414 6.1 -36.4°
Reaches altitude 10° 20:46:18 10° 344° (NNW) 2,475 5.1 -36.8°
Enters shadow 20:48:26 22° 356° (N) 1,780 4.2 -37.1°
